AirNav   Jet Aviation Boston
 
 1587 users online  

43NC Bahnson Gliderport
Mocksville, North Carolina, USA

GOING TO MOCKSVILLE?


FAA INFORMATION EFFECTIVE 24 MAY 2018

Location

FAA Identifier: 43NC
Lat/Long: 36-01-15.0000N / 080-30-59.0000W
36-01.250000N / 080-30.983333W
36.0208333 / -80.5163889
(estimated)
Elevation: 810 ft. / 247 m (estimated)
Variation: 07W (1995)
From city: 7 miles NE of MOCKSVILLE, NC
Time zone: UTC -4 (UTC -5 during Standard Time)
Zip code: 27028

Gliderport Operations

Gliderport use: Private use. Permission required prior to landing
Activation date: 01/2000
Control tower: no
ARTCC: ATLANTA CENTER
FSS: RALEIGH FLIGHT SERVICE STATION
Attendance: UNATNDD
Wind indicator: yes
Segmented circle: yes

Gliderport Communications

WX ASOS at INT (16 nm NE): PHONE 336-661-3096
WX AWOS-3 at EXX (18 nm SE): 119.825 (336-956-2967)

Nearby radio navigation aids

VOR radial/distance  VOR name  Freq  Var
GSOr270/26.2GREENSBORO VORTAC116.2003W
BZMr081/36.3BARRETTS MOUNTAIN VOR/DME110.8006W

 
NDB name  Hdg/Dist  Freq  Var  ID
ZEPHYR158/20.132608WZEF --.. . ..-.

Gliderport Services

Runway Information

Runway 1/19

Dimensions: 3000 x 100 ft. / 914 x 30 m
Surface: turf
RUNWAY 1  RUNWAY 19
Traffic pattern: leftright

Gliderport Ownership and Management from official FAA records

Ownership: Privately-owned
Owner: BERT BAHNSON
2078 HIWAY 801N
MOCKSVILLE, NC 27028
Phone 336-998-3160
Manager: BERT BAHNSON
2078 HIWAY 801N
MOCKSVILLE, NC 27028
Phone 336-998-3160

Gliderport Operational Statistics

Aircraft based on the field: 20
Single engine airplanes: 4
Gliders airplanes: 15
Ultralights: 1
    

Instrument Procedures

There are no published instrument procedures at 43NC.

Some nearby airports with instrument procedures:

8A7 - Twin Lakes Airport (7 nm SE)
KINT - Smith Reynolds Airport (16 nm NE)
KEXX - Davidson County Airport (18 nm SE)
KZEF - Elkin Municipal Airport (20 nm NW)
KRUQ - Mid-Carolina Regional Airport (22 nm S)
 
Loc | Ops | Rwys | IFR | FBO | Links
Com | Nav | Svcs | Stats | Notes

AirNav Hotels Sweepstakes
 
Area around 43NC (Bahnson Gliderport)
 
Road maps at: MapQuest Bing Google
 
Aerial photo
WARNING: Photo may not be current or correct
Aerial photo of 43NC (Bahnson Gliderport)
Do you have a better or more recent aerial photo of Bahnson Gliderport that you would like to share? If so, please send us your photo.

 
Sectional chart

 
Airport distance calculator
Flying to Bahnson Gliderport? Find the distance to fly.

From to 43NC

Sunrise and sunset
Times for 18-Jun-2018
 Local
(UTC-4)
 Zulu
(UTC)
Morning civil twilight05:3609:36
Sunrise06:0610:06
Sunset20:4000:40
Evening civil twilight21:1101:11

Current date and time
Zulu (UTC)  18-Jun-2018 16:35:37
Local (UTC-4)  18-Jun-2018 12:35:37
 
METAR
KINT 
16nm NE 
181554Z 31005KT 10SM CLR 33/20 A3013 RMK AO2 SLP189 T03280200
KRUQ 
22nm S 
181615Z AUTO 28003KT 10SM CLR 31/21 A3012 RMK AO2 T03120214
KSVH 
27nm SW 
181615Z AUTO 00000KT 10SM CLR 33/21 A3012 RMK AO2 T03270205
KMWK 
27nm N 
181610Z AUTO 00000KT 10SM CLR 31/23 A3017 RMK AO2 T03120230
KGSO 
28nm E 
181554Z VRB04KT 10SM FEW045 OVC250 32/22 A3011 RMK AO2 SLP183 T03220217
KUKF 
31nm NW 
181615Z AUTO 19005KT 10SM CLR 32/21 A3019 RMK AO2
TAF
KINT 
16nm NE 
181130Z 1812/1912 VRB03KT P6SM SCT070 FM181800 27006KT P6SM BKN070 FM190100 25004KT P6SM SCT070 SCT250
NOTAMs
Click for the latest NOTAMs
NOTAMs are issued by the DoD/FAA and will open in a separate window not controlled by AirNav.

 

 
 

Would you like to see your business listed on this page?

 If your business provides an interesting product or service to pilots, flight crews, aircraft, or users of the Bahnson Gliderport, you should consider listing it here.  To start the listing process, click on the button below
 
Add a business
 

Other Pages about Bahnson Gliderport

Update a link
 
Copyright © AirNav, LLC. All rights reserved. Privacy Policy  Contact